Regional Weather Roundup
Issued by NWS

Home | Current Version | Previous Version | Graphics & Text | Print | Product List | Glossary On
Versions: 1 2 3 4 5 6 7 8 9 10 11 12 13 14 15 16 17 18 19 20 21 22 23 24 25 26 27 28 29 30 31 32 33 34 35 36 37 38 39 40 41 42 43 44 45 46 47 48 49 50
000
ASUS43 KFSD 221102
RWRSD

WEATHER ROUNDUP FOR SOUTH DAKOTA
NATIONAL WEATHER SERVICE SIOUX FALLS SD
600 AM CDT WED MAR 22 2017

NOTE: "FAIR" INDICATES FEW OR NO CLOUDS BELOW 12,000 FEET WITH NO
SIGNIFICANT WEATHER AND/OR OBSTRUCTIONS TO VISIBILITY.


SDZ001>005-009-010-012>017-221200-
NORTHWEST AND NORTH CENTRAL SOUTH DAKOTA

CITY           SKY/WX    TMP DP  RH WIND       PRES   REMARKS
BUFFALO          N/A     29  26  89 SE25G35   29.88F WCI  14
FAITH            N/A     27  25  92 SE29G36   30.06F WCI  11
MOBRIDGE       CLOUDY    29  19  66 SE18G25   30.21F WCI  16
$$

SDZ012>016-024>037-041>051-057-063-072>074-221200-
SOUTHWEST AND SOUTH CENTRAL SOUTH DAKOTA

CITY           SKY/WX    TMP DP  RH WIND       PRES   REMARKS
RAPID CTY ARPT CLOUDY    31  30  96 S18       30.00F WCI  19
PIERRE         CLOUDY    28  23  81 SE17      30.24F WCI  16
CUSTER         CLOUDY    30  27  88 VRB3      29.99F
ELLSWORTH AFB  CLEAR     32  32 100 S30G39    29.97  WCI  18
PHILIP         CLOUDY    31  28  89 SE13G21   30.14F WCI  21
PINE RIDGE     CLOUDY    38  34  85 S25G37    30.03F
SPEARFISH      FOG       28  28 100 CALM      29.88F VSB 1/4
WINNER         CLOUDY    32  27  81 SE16      30.26S WCI  21
$$

SDZ004>011-016>023-039-040-221200-
NORTHEAST SOUTH DAKOTA

CITY           SKY/WX    TMP DP  RH WIND       PRES   REMARKS
ABERDEEN       CLOUDY    25  15  66 SE15      30.37F WCI  13
WATERTOWN      CLOUDY    23  12  62 SE13      30.38F WCI  11
BROOKINGS      CLOUDY    24  14  65 SE15      30.40F WCI  11
SISSETON         N/A     22  16  78 S12       30.43F WCI  10
$$

SDZ017-020-022-023-036>040-048>070-221200-
SOUTHEAST SOUTH DAKOTA

CITY           SKY/WX    TMP DP  RH WIND       PRES   REMARKS
SIOUX FALLS    CLOUDY    27  17  66 SE12      30.43F WCI  17
HURON          CLOUDY    28  18  66 SE15G23   30.36F WCI  16
CHAMBERLAIN    CLOUDY    31  25  80 SE18G24   30.30F WCI  19
MITCHELL       CLOUDY    30  20  66 SE17      30.38F WCI  18
YANKTON        CLOUDY    28  19  69 E10       30.42S WCI  19
$$

ABBREVIATIONS USED IN REMARKS
   TC - TEMPERATURE IN CELSIUS
  WCI - WIND CHILL INDEX
   HX - HEAT INDEX
  VSB - VISIBILITY





USA.gov is the U.S. government's official web portal to all federal, state and local government web resources and services.